STARLINK-31360

decayed
NORAD ID: 58982 Int'l Des: 2024-031 Owner: SPXS Country: US Constellation: starlink
LEOCIRCULAR

关于 STARLINK-31360

正在加载描述...

高度历史

Altitude vs Time

uPlot chart will show altitude changes over time

两行轨道根数

1 58982U 24031T 25039.13840833 .15217798 11787-4 48453-2 0 9995
2 58982 53.1309 309.8583 0012345 215.0869 310.9607 16.25364394 56399
Epoch: Feb 8, 2025 • Age: 5278 hours

当前状态

Position data unavailable
发射日期 Feb 15, 2024
运行时间 1.5 years
衰减日期 Feb 8, 2025
类型 internet

技术详情

分类 Payload
质量 730.00 kg
干质量 700.00 kg
总质量 730.00 kg
长度 0.30 m
直径 4.10 m
跨度 29.00 m
形状 Box + pan
制造商 SPXS
平台类型 Starlink V2M
阶段状态 Unknown Transfer Status
所有者/国家 SPXS/US

大型星座

Loading constellations...